Regional Weather Roundup
Issued by NWS State College, PA

Home | Current Version | Previous Version | Graphics & Text | Print | Product List | Glossary Off
Versions: 1 2 3 4 5 6 7 8 9 10 11 12 13 14 15 16 17 18 19 20 21 22 23 24 25 26 27 28 29 30 31 32 33 34 35 36 37 38 39 40 41 42 43 44 45 46 47 48 49 50

000
ASUS41 KCTP 250403
RWRCTP

REGIONAL WEATHER ROUNDUP
NATIONAL WEATHER SERVICE STATE COLLEGE PA
1100 PM EST SAT FEB 24 2018

Note: "fair" indicates few or no clouds below 12,000 feet with no
significant weather and/or obstructions to visibility.

* = STATION THAT DOES NOT REPORT PRECIPITATION /E.G. RAIN...SNOW...ETC/
    THUNDER OR FOG.

PAZ002>004-007>009-013>016-020>023-029>032-250500-
WESTERN PENNSYLVANIA

CITY           SKY/WX    TMP DP  RH WIND       PRES   REMARKS
ERIE           FAIR      38  33  82 E7        29.95F
MEADVILLE      LGT RAIN  44  42  93 VRB5      29.92F
FRANKLIN*      LGT RAIN  43  41  93 SE15G21   29.94F
NEW CASTLE     RAIN      46  46 100 SE9       29.92F
BEAVER COUNTY  NOT AVBL
BUTLER*        LGT RAIN  45  44  97 E13       29.94F
PITTSBURGH INT LGT RAIN  47  46  97 SE9       29.91F
PITTSBURGH     LGT RAIN  47  44  90 E6        29.93F
INDIANA*       CLOUDY    46  45  93 SE17      30.01F
LATROBE        MOCLDY    48  45  87 SE14G21   29.96F
WASHINGTON CO* LGT RAIN  49  47  93 E5        29.96F
$$

PAZ004>006-010>012-017>019-024>028-033>037-041-042-045-046-049>053-250500-
CENTRAL PENNSYLVANIA

CITY           SKY/WX    TMP DP  RH WIND       PRES   REMARKS
BRADFORD       CLOUDY    41  38  89 SE17G24   30.00F
DUBOIS         LGT RAIN  41  39  93 SE10      30.00S FOG
CLEARFIELD     LGT RAIN  42  41  96 SE3       30.06F
JOHNSTOWN      LGT RAIN  42  40  92 SE12G22   30.02F
ALTOONA        CLOUDY    43  42  97 SE5       30.08F FOG
STATE COLLEGE  DRIZZLE   42  41  95 SE3       30.09F
WILLIAMSPORT   CLOUDY    43  42  97 E13       30.11F FOG
SELINSGROVE    CLOUDY    43  42  97 CALM      30.15F FOG
FT INDIANTOWN  CLOUDY    45  45 100 CALM      30.15F
CAPITAL CITY   CLOUDY    47  45  93 CALM      30.16R
HARRISBURG     CLOUDY    45  42  89 CALM      30.15S
YORK           CLOUDY    46  45  96 NE5       30.13F
$$

PAZ038>040-043-044-047-048-054-055-060>062-067>071-250500-
EASTERN PENNSYLVANIA

CITY           SKY/WX    TMP DP  RH WIND       PRES   REMARKS
SCRANTON       CLOUDY    41  38  89 NE6       30.15F
MOUNT POCONO   CLOUDY    36  36 100 E7        30.13F
ALLENTOWN      CLOUDY    44  40  85 E10       30.18F
QUAKERTOWN*    CLOUDY    43  43 100 CALM      30.17F
READING        CLOUDY    46  44  93 E3        30.15F
LANCASTER      CLOUDY    46  43  89 E6        30.14F
COATESVILLE    CLOUDY    45  43  93 E14       30.15F
POTTSTOWN      CLOUDY    44  43  96 E3        30.18F
BLUE BELL      CLOUDY    43  43 100 E6        30.18F
DOYLESTOWN     LGT RAIN  43  42  97 NE5       30.16F
WILLOW GROVE   NOT AVBL
NORTH PHILA    CLOUDY    48  42  80 NE9       30.19F
PHILADELPHIA   LGT RAIN  46  42  86 NE9       30.17F
$$




USA.gov is the U.S. government's official web portal to all federal, state and local government web resources and services.